User: anonymous   Login
Location: Muenchen
(48.1800°N, 11.5800°E)
Time: 11:06:37
(UTC+01:00)
Language:

Tiros 1 - Orbit

View from above orbital plane
View from above orbital plane
View from above satellite
View from above satellite

Ground track
Ground track

The orbit data is extracted from the following two-line orbital elements,

1 00029U 60002B   15030.01634339  .00000682  00000-0  13449-3 0  4408
2 00029 048.3777 221.0807 0024034 107.8685 252.4850 14.73598650928684
Epoch (UTC): 30 January 2015 00:23:32
Eccentricity: 0.0024034
inclination: 48.3777°
perigee height: 633 km
apogee height: 666 km
right ascension of ascending node: 221.0807°
argument of perigee: 107.8685°
revolutions per day: 14.73598650
mean anomaly at epoch: 252.4850°
orbit number at epoch: 92868

The dashed part of the orbit path shows where the satellite is in the earth's shadow,  

DLR